Weather Roundup
Issued by NWS

Home | Current Version | Previous Version | Text Only | Print | Product List | Glossary On
Versions: 1 2 3 4 5 6 7 8 9 10 11 12 13 14 15 16 17 18 19 20 21 22 23 24 25 26 27 28 29 30 31 32 33 34 35 36 37 38 39 40 41 42 43 44 45 46 47 48 49 50
000
NZUS93 KARX 262059
HRRWXR

CURRENT HOURLY OBSERVATIONS ACROSS
MUCH OF THE UPPER MISSISSIPPI VALLEY
NATIONAL WEATHER SERVICE LA CROSSE WI
300 PM CST WED NOV 26 2014


...SOUTHEAST MINNESOTA...


CITY           SKY/WX    TMP DP  RH WIND       PRES   REMARKS
ROCHESTER      LGT SNOW  24  21  88 N12       30.16R FOG     WCI  13
ROCHESTER/MAYO CLOUDY    25  22  86 NW3       30.17R
WINONA         LGT SNOW  28  25  86 N3        30.19R VSB 1
AUSTIN         LGT SNOW  25  21  86 N7        30.15R WCI  17
ALBERT LEA     LGT SNOW  25  25 100 N9        30.16R WCI  15
DODGE CENTER   LGT SNOW  25  23  93 N7        30.16R WCI  17
PRESTON        LGT SNOW  24  21  89 NE10      30.15R WCI  13
OWATONNA       LGT SNOW  25  21  86 NE9       30.18R WCI  15
FARIBAULT      PTSUNNY   27  21  80 NE5       30.19R FOG     WCI  21
$$

...ELSEWHERE IN MINNESOTA...


CITY           SKY/WX    TMP DP  RH WIND       PRES   REMARKS
MINNEAPOLIS    CLOUDY    25  18  74 N8        30.22R WCI  16
INTNL FALLS    PTCLDY     6  -5  60 N9        30.32R WCI  -8
DULUTH         FLURRIES  18   7  62 NW10      30.19R WCI   6
RED WING       MIX PCPN  27  21  80 N3        30.20R
REDWOOD FALLS  CLOUDY    19  13  77 NW12G23   30.27R WCI   7
MANKATO        CLOUDY    25  19  80 N12       30.21R WCI  14
WORTHINGTON    CLOUDY    18  12  79 N22       30.23R WCI   0
FAIRMONT       CLOUDY    25  19  80 N17       30.19R WCI  11
$$

...SOUTHWEST WISCONSIN...


CITY           SKY/WX    TMP DP  RH WIND       PRES   REMARKS
LA CROSSE      CLOUDY    29  18  63 N7        30.17R WCI  22
PRAIRIE DU CHI CLOUDY    27  21  77 NE5       30.14R WCI  22
BOSCOBEL       CLOUDY    25  20  81 VRB5      30.17R HAZE    WCI  19
LONE ROCK      NOT AVBL
PLATTEVILLE    CLOUDY    27  24  89 CALM      30.11R
FORT MC COY    CLOUDY    28  18  66 NE6       30.16R WCI  21
VIROQUA        MOCLDY    26  20  78 NE6       30.11R WCI  20
WIS DELLS      CLOUDY    21  18  89 NE5       30.14R FOG     WCI  14
$$

...ELSEWHERE IN WISCONSIN...


CITY           SKY/WX    TMP DP  RH WIND       PRES   REMARKS
MILWAUKEE      CLOUDY    30  21  69 CALM      30.12R
MADISON        CLOUDY    20  16  84 N7        30.15R FOG     WCI  11
GREEN BAY      PTSUNNY   24  18  77 NW8       30.17R WCI  15
EAU CLAIRE     LGT SNOW  25  19  80 N5        30.18R WCI  19
BLACK RVR FLS  MOCLDY    28  17  63 N3        30.15R
MEDFORD        LGT SNOW  23  18  83 N3        30.12R
WAUSAU         PTSUNNY   24  17  74 W6        30.12R WCI  17
WIS RAPIDS     MOSUNNY   26  16  65 CALM      30.16R
MARSHFIELD     CLOUDY    26  16  65 E3        30.13R
RICE LAKE      PTSUNNY   25  17  73 NW6       30.19R WCI  18
$$

...NORTHEAST IOWA...


CITY           SKY/WX    TMP DP  RH WIND       PRES   REMARKS
DECORAH        PTSUNNY   27  21  80 N12       30.11R WCI  16
MASON CITY     LGT SNOW  25  22  88 N15       30.15R VSB 3/4 WCI  13
CHARLES CITY   LGT SNOW  28  25  86 NE14      30.12R VSB 1   WCI  17
OELWEIN        CLOUDY    30  25  80 NE10      30.09R HAZE    WCI  21
$$

...ELSEWHERE IN IOWA...


CITY           SKY/WX    TMP DP  RH WIND       PRES   REMARKS
DES MOINES     FLURRIES  32  27  81 N13       30.06R WCI  22
IOWA CITY      FLURRIES  30  25  81 NE15      30.07R WCI  19
FORT DODGE     CLOUDY    27  21  80 N13       30.14R VSB 1   WCI  16
$$

...NORTHERN ILLINOIS...


CITY           SKY/WX    TMP DP  RH WIND       PRES   REMARKS
CHICAGO-OHARE  CLOUDY    28  20  71 E8        30.10S WCI  20
CHICAGO-MIDWAY CLOUDY    29  19  66 E6        30.12R WCI  23
MOLINE         CLOUDY    29  24  82 E15       30.07R HAZE    WCI  18
ROCKFORD       CLOUDY    26  19  74 E6        30.14R WCI  19
PEORIA         LGT SNOW  32  25  75 E9        30.06S WCI  24
$$

NOTE: "FAIR" INDICATES FEW OR NO CLOUDS BELOW 12,000 FEET WITH NO
SIGNIFICANT WEATHER AND/OR OBSTRUCTIONS TO VISIBILITY. WIND
SPEEDS ARE IN MILES-PER-HOUR.



USA.gov is the U.S. government's official web portal to all federal, state and local government web resources and services.